SCP
0 0 0 0 0 0 0 0 0 0 0 0 0 0 0 0 0 0 0 0 0 0 0 0 0 0 0 0 0 0 0 0 0 0 0 0 0 0 0 0 0 0 0 0 0 0 0 0 0
0 0 0 0 0 0 0 0 0 0 0 0 0 0 0 0 0 0 0 0 0 0 0 0 0 0 0 0 0 0 0 0 0 0 0 0 0 0 0 0 0 0 0 0 0 0 0 0 0
0 0 0 0 0 0 0 0 0 0 0 0 0 0 0 0 0 0 0 0 0 0 0 0 0 1 0 0 0 0 0 0 0 0 0 0 0 0 0 0 0 0 0 0 0 0 0 0 0
0 0 0 0 0 0 0 0 0 0 0 0 0 0 0 0 0 0 0 0 0 0 0 0 1 1 1 1 0 0 0 0 0 0 0 0 0 0 0 0 0 0 0 0 0 0 0 0 0
0 0 0 0 0 0 0 0 0 0 0 0 0 0 0 0 0 0 0 0 0 0 0 0 1 1 1 1 1 0 0 0 0 0 0 0 0 0 0 0 0 0 0 0 0 0 0 0 0
0 0 0 0 0 0 0 0 0 0 0 0 0 0 0 0 0 0 0 0 0 0 0 0 0 0 1 1 1 0 0 0 0 0 0 0 0 0 0 0 0 0 0 0 0 0 0 0 0
0 0 0 0 0 0 0 0 0 0 0 0 0 0 0 0 0 0 0 0 0 0 0 0 0 0 0 0 0 0 0 0 0 0 0 0 0 0 0 0 0 0 0 0 0 0 0 0 0
0 0 0 0 0 0 0 0 0 0 0 0 0 0 0 0 0 0 0 0 0 0 0 0 0 0 0 0 0 0 0 0 0 0 0 0 0 0 0 0 0 0 0 0 0 0 0 0 0
0 0 0 0 0 0 0 0 0 0 0 0 0 0 0 0 0 0 0 0 0 0 0 0 0 0 0 0 0 0 0 0 0 0 0 0 0 0 0 0 0 0 0 0 0 0 0 0 0
0 0 0 0 0 0 0 0 0 0 0 0 0 0 0 0 0 0 0 0 0 0 0 0 0 0 0 0 0 0 0 0 0 0 0 0 0 0 0 0 0 0 0 0 0 0 0 0 0
0 0 0 0 0 0 0 0 0 0 0 0 0 0 0 0 0 0 0 0 0 0 0 0 0 0 0 0 0 0 0 0 0 0 0 0 0 0 0 0 0 0 0 0 0 0 0 0 0
0 0 0 0 0 0 0 0 0 0 0 0 0 0 0 0 0 0 0 0 0 0 0 0 0 0 0 0 0 0 0 0 0 0 0 0 0 0 0 0 0 0 0 0 0 0 0 0 0
0 0 0 0 0 0 0 0 0 0 0 0 0 0 0 0 0 0 0 0 0 0 0 0 0 0 0 0 0 0 0 0 0 0 0 0 0 0 0 0 0 0 0 0 0 0 0 0 0
0 0 0 0 0 0 0 0 0 0 0 0 0 0 0 0 0 0 0 0 0 0 0 0 0 0 0 0 0 0 0 0 0 0 0 0 0 0 0 0 0 0 0 0 0 0 0 0 0
0 0 0 0 0 0 0 0 0 0 0 0 0 0 0 0 0 0 0 0 0 0 0 0 0 0 0 0 0 0 0 0 0 0 0 0 0 0 0 0 0 0 0 0 0 0 0 0 0
0 0 0 0 0 0 0 0 0 0 0 0 0 0 0 0 0 0 0 0 0 0 0 0 0 0 0 0 0 0 0 0 0 0 0 0 0 0 0 0 0 0 0 0 0 0 0 0 0
0 0 0 0 0 0 0 0 0 0 0 0 0 0 0 0 0 0 0 0 0 0 0 0 0 0 0 0 0 0 0 0 0 0 0 0 0 0 0 0 0 0 0 0 0 0 0 0 0
0 0 0 0 0 0 0 0 0 0 0 0 0 0 0 0 0 0 0 0 0 0 0 0 0 0 0 0 0 0 0 0 0 0 0 0 0 0 0 0 0 0 0 0 0 0 0 0 0
0 0 0 0 0 0 0 0 0 0 0 0 0 0 0 0 0 0 0 0 0 0 0 0 0 0 0 0 0 0 0 0 0 0 0 0 0 0 0 0 0 0 0 0 0 0 0 0 0
0 0 0 0 0 0 0 0 0 0 0 0 0 0 0 0 0 0 0 0 0 0 0 0 0 0 0 0 0 0 0 0 0 0 0 0 0 0 0 0 0 0 0 0 0 0 0 0 0
0 0 0 0 0 0 0 0 0 0 0 0 0 0 0 0 0 0 0 0 0 0 0 0 0 0 0 0 0 0 0 0 0 0 0 0 0 0 0 0 0 0 0 0 0 0 0 0 0
0 0 0 0 0 0 0 0 0 0 0 0 0 0 0 0 0 0 0 0 0 0 0 0 0 0 0 0 0 0 0 0 0 0 0 0 0 0 0 0 0 0 0 0 0 0 0 0 0
0 0 0 0 0 0 0 0 0 0 0 0 0 0 0 0 0 0 0 0 0 0 0 0 0 0 0 0 0 0 0 0 0 0 0 0 0 0 0 0 0 0 0 0 0 0 0 0 0
0 0 0 0 0 0 0 0 0 0 0 0 0 0 0 0 0 0 0 0 0 0 0 0 0 0 0 0 0 0 0 0 0 0 0 0 0 0 0 0 0 0 0 0 0 0 0 0 0
0 0 0 0 0 0 0 0 0 0 0 0 0 0 0 0 0 0 0 0 0 0 0 0 0 0 0 0 0 0 0 0 0 0 0 0 0 0 0 0 0 0 0 0 0 0 0 0 0
0 0 0 0 0 0 0 0 0 0 0 0 0 0 0 0 0 0 0 0 0 0 0 0 0 0 0 0 0 0 0 0 0 0 0 0 0 0 0 0 0 0 0 0 0 0 0 0 0
0 0 0 0 0 0 0 0 0 0 0 0 0 0 0 0 0 0 0 0 0 0 0 0 0 0 0 0 0 0 0 0 0 0 0 0 0 0 0 0 0 0 0 0 0 0 0 0 0
0 0 0 0 0 0 0 0 0 0 0 0 0 0 0 0 0 0 0 0 0 0 0 0 0 0 0 0 0 0 0 0 0 0 0 0 0 0 0 0 0 0 0 0 0 0 0 0 0
0 0 0 0 0 0 0 0 0 0 0 0 0 0 0 0 0 0 0 0 0 0 0 0 0 0 0 0 0 0 0 0 0 0 0 0 0 0 0 0 0 0 0 0 0 0 0 0 0
0 0 0 0 0 0 0 0 0 0 0 0 0 0 0 0 0 0 0 0 0 0 0 0 0 0 0 0 0 0 0 0 0 0 0 0 0 0 0 0 0 0 0 0 0 0 0 0 0
Wind_Speed
10 10 6 3 3 4 2 6 4 5 4 4 3 3 4 4 3 2 4 3 6 10 15 15 14 15 15 13 12 11 11 11 10 10 10 9 9 9 9 9 9 9 8 8 7 7 8 8 8
8 6 4 3 3 3 4 6 5 5 3 2 2 3 4 1 5 6 5 4 5 10 14 14 14 15 16 14 13 12 12 11 11 11 10 10 10 9 9 8 7 8 7 7 7 7 7 8 8
8 6 4 3 3 4 5 4 5 3 2 0 3 2 1 3 3 4 5 7 5 8 12 13 15 15 16 15 14 13 12 11 12 12 11 11 9 8 7 6 6 6 6 6 6 7 7 7 7
5 3 3 3 5 3 3 4 6 5 1 3 2 6 2 4 3 5 5 7 6 7 9 13 17 15 16 15 15 14 13 12 12 12 12 11 10 8 6 5 5 6 5 5 6 7 7 7 6
3 3 3 5 4 2 3 4 2 4 3 2 0 5 3 4 7 7 5 7 6 7 7 13 16 15 15 15 15 14 13 12 12 13 12 11 10 8 6 5 5 6 5 5 6 6 6 6 6
3 3 3 4 3 3 3 4 2 4 2 1 2 4 0 6 7 6 6 6 6 7 7 11 14 13 13 14 14 14 13 12 13 13 12 12 11 9 8 7 6 6 5 6 6 6 6 6 6
3 2 4 6 4 1 4 3 3 5 6 3 1 3 1 4 5 5 5 6 5 7 7 7 10 11 10 11 12 12 12 12 12 13 12 11 10 9 8 7 7 7 7 7 7 7 7 6 6
4 3 5 5 4 3 4 3 1 4 6 2 1 4 2 3 3 3 3 4 5 5 6 6 8 9 9 8 11 12 12 12 12 12 11 10 9 9 8 7 7 8 8 9 8 8 7 7 6
3 3 4 5 3 3 2 2 3 3 5 5 4 6 2 7 5 4 3 4 4 5 6 6 7 9 9 8 11 11 11 11 11 10 11 10 6 6 6 7 8 8 9 10 10 9 8 7 5
2 3 5 5 5 6 7 6 6 5 7 8 7 9 7 8 6 6 6 7 8 8 7 6 7 7 8 8 7 7 7 7 7 6 7 5 4 5 7 9 10 9 10 10 10 10 9 6 3
4 5 6 9 8 6 7 7 7 8 9 9 8 7 3 3 6 8 8 8 9 9 10 9 8 8 7 5 5 5 5 5 7 7 8 6 4 3 4 4 5 6 8 5 7 6 3 3 3
6 7 7 8 5 2 5 7 8 9 11 9 10 10 9 7 7 7 8 8 8 8 10 12 11 8 8 6 5 5 4 4 5 6 7 6 4 4 4 4 4 4 3 4 4 3 3 3 3
7 7 8 7 5 5 7 10 11 14 13 12 12 10 9 8 7 7 7 8 8 8 7 11 12 11 9 8 6 6 5 5 5 5 6 7 5 5 4 4 5 5 4 5 5 4 4 3 3
5 7 9 9 10 8 8 11 8 13 11 10 9 8 8 8 8 7 6 7 7 8 8 7 11 11 9 8 7 6 6 6 6 6 7 8 6 5 5 5 5 5 5 5 5 5 5 3 3
3 6 11 12 15 8 5 8 9 13 9 7 7 8 9 8 6 5 4 3 4 5 6 7 8 10 10 9 8 5 5 6 6 6 8 9 7 7 6 5 5 5 5 6 5 5 4 4 4
6 6 6 7 4 5 6 8 8 6 7 8 9 10 10 8 5 6 7 7 7 4 1 5 5 7 8 8 7 5 4 5 5 5 6 9 9 8 7 6 6 6 5 5 5 5 5 4 4
6 7 9 9 2 5 5 7 7 8 9 11 12 12 9 5 9 13 14 14 13 12 9 4 2 5 5 6 5 4 4 4 4 4 5 7 8 7 6 6 6 7 6 5 6 5 5 5 5
6 8 10 10 6 3 6 10 9 9 10 12 13 10 4 8 12 13 15 15 14 13 13 11 7 1 3 2 2 2 2 2 2 3 4 6 6 6 5 5 6 7 6 6 6 7 5 5 5
9 10 13 12 11 11 12 11 9 8 11 14 11 5 4 10 11 14 15 14 13 14 14 13 11 7 3 2 2 1 1 1 1 2 3 5 5 6 5 4 5 6 7 7 8 6 7 5 5
7 10 12 11 8 8 10 11 11 13 15 11 6 2 7 10 12 15 15 14 14 14 13 13 13 11 7 3 2 2 1 1 1 2 2 3 4 5 5 5 4 5 5 7 8 7 6 4 6
9 10 9 9 9 7 10 9 9 8 5 1 5 10 13 13 13 12 13 13 13 14 14 13 14 13 11 8 4 4 4 3 3 2 1 1 3 3 4 5 4 5 6 6 8 9 10 7 6
9 6 5 6 5 5 4 7 5 9 4 4 9 12 12 12 11 11 11 12 13 12 11 12 14 14 13 10 7 5 3 2 2 1 0 1 2 3 3 4 5 5 5 6 7 8 7 6 7
4 2 3 6 6 7 6 9 7 9 4 8 10 11 10 10 10 10 10 10 10 10 10 10 12 13 13 12 11 8 5 4 3 3 3 1 1 3 3 3 4 5 5 6 7 7 8 6 6
3 4 7 7 2 5 6 7 5 1 6 9 9 9 9 8 8 8 8 7 8 9 9 10 11 12 12 12 12 11 9 7 6 5 3 2 1 2 4 4 4 5 4 6 7 7 9 8 7
2 1 3 3 3 6 3 3 5 2 7 12 12 10 8 7 7 6 7 7 8 9 9 9 11 12 12 11 11 11 10 9 8 6 5 4 2 2 4 5 5 5 5 6 6 7 8 9 10
2 1 3 4 5 5 5 7 5 4 8 11 11 10 8 7 6 6 6 6 6 7 8 9 10 10 10 10 9 9 10 7 6 7 6 6 5 4 4 4 6 6 6 6 6 6 7 7 9
1 3 2 3 5 6 8 6 1 5 8 9 9 8 7 6 5 5 5 5 5 6 7 8 8 8 9 9 8 8 8 8 8 8 7 6 7 7 8 6 4 5 7 7 6 5 7 7 8
3 2 2 2 4 7 7 8 5 4 8 8 7 7 6 4 4 4 4 4 5 5 5 6 6 7 7 7 7 6 6 7 7 6 8 8 8 8 9 9 8 6 6 7 7 6 7 8 8
5 4 5 5 5 5 5 6 3 5 8 9 7 6 4 3 3 3 3 4 4 5 5 4 4 5 5 5 5 5 5 6 6 6 7 7 7 8 8 8 8 8 7 6 6 7 8 9 9
7 8 7 7 8 7 7 7 6 8 7 7 6 4 3 2 2 3 3 3 4 3 3 3 3 3 3 4 5 5 5 5 5 6 6 7 7 8 8 8 8 8 8 7 7 8 9 10 10
Wind_Direction
272 259 260 271 252 234 256 69 51 24 37 41 17 330 326 306 349 75 163 164 141 139 145 160 161 163 163 162 161 160 161 161 160 157 151 143 133 123 113 104 99 96 91 87 85 80 74 67 62
289 286 272 249 259 287 74 70 65 56 40 345 261 232 270 273 92 112 141 162 141 140 147 166 163 165 165 165 165 167 170 171 168 162 155 144 134 126 119 107 100 100 97 93 89 84 74 66 62
279 271 267 264 268 343 25 43 38 32 114 258 297 237 275 5 82 94 121 156 151 146 153 165 162 168 168 169 170 172 176 178 176 169 159 150 143 138 130 119 110 108 104 100 94 87 78 68 62
280 244 238 254 285 355 7 15 26 342 101 144 307 298 168 113 73 95 132 158 159 154 158 159 164 172 173 173 175 178 182 185 183 174 166 159 153 148 144 141 133 123 116 108 101 93 84 74 66
234 260 251 254 251 59 32 36 16 304 306 136 205 297 335 94 107 124 151 166 164 159 161 157 169 177 179 179 180 183 187 190 184 177 170 163 159 156 156 165 160 144 135 122 112 101 91 80 71
263 269 276 292 10 52 73 55 324 282 301 129 181 278 141 135 141 144 150 171 175 161 162 154 174 178 183 184 186 188 192 191 183 176 171 167 165 165 168 176 175 164 154 140 125 113 103 91 80
284 288 286 306 312 312 103 93 307 325 320 336 65 299 209 135 116 127 152 179 187 162 162 156 175 185 189 191 191 192 194 188 181 176 173 170 170 169 170 173 178 174 167 152 137 128 118 105 89
313 289 269 269 284 318 116 131 277 299 299 19 31 277 13 108 99 121 166 187 194 168 168 179 173 186 192 194 197 195 191 185 178 175 171 167 166 165 162 166 177 178 170 157 148 141 131 114 97
294 266 266 280 299 311 110 183 275 220 251 272 221 241 164 152 143 159 187 212 210 192 181 194 190 186 188 189 194 192 188 183 175 172 168 161 161 161 159 174 177 179 167 159 156 150 133 121 112
236 253 260 310 336 336 346 339 328 308 284 277 260 237 202 161 172 193 207 211 209 208 200 199 206 196 189 190 183 184 186 182 180 172 166 170 176 176 171 184 173 170 156 158 161 151 142 148 151
223 242 289 318 344 358 336 316 302 283 273 273 291 318 338 202 207 215 223 224 217 204 196 199 203 201 195 191 182 180 184 182 188 185 171 171 183 175 159 144 154 151 148 148 146 141 175 191 148
245 268 284 291 318 344 303 296 293 272 268 282 291 291 287 272 251 237 231 228 230 217 197 192 193 196 196 191 191 181 179 182 186 188 177 169 177 172 156 146 155 154 155 153 144 161 179 149 124
254 268 273 287 307 283 274 272 279 270 265 269 272 274 274 274 269 256 244 227 219 228 214 188 187 192 191 192 191 189 186 182 180 179 183 176 174 172 166 163 163 165 163 158 151 160 160 154 157
315 325 311 298 274 246 243 265 268 267 266 269 272 275 267 261 258 253 245 233 218 218 220 198 186 189 189 193 195 192 187 180 179 182 186 182 173 169 168 171 166 166 161 154 152 160 157 163 152
358 298 281 257 246 230 207 270 247 260 273 280 284 283 281 277 282 280 272 257 234 217 209 205 192 185 189 195 197 196 192 183 182 182 183 182 175 170 169 171 169 167 154 150 150 155 151 155 152
248 250 266 264 243 116 146 251 276 328 356 320 302 295 295 303 330 3 17 20 11 2 255 207 187 181 188 192 194 195 195 192 185 180 178 180 179 172 169 171 173 166 152 150 158 157 154 160 157
237 244 254 275 205 137 186 247 278 312 313 294 286 285 293 338 24 33 32 29 23 16 8 360 186 180 184 186 183 188 190 195 184 177 174 177 181 180 171 173 170 164 156 160 168 164 158 161 162
256 277 300 309 321 280 235 248 261 268 271 274 277 287 329 46 48 41 36 29 25 20 16 12 12 100 149 147 157 172 192 192 178 170 167 168 178 185 175 171 172 164 161 170 173 171 171 157 153
287 295 291 289 293 288 280 281 290 291 282 278 282 298 63 72 58 46 38 30 26 23 20 16 12 14 64 93 116 141 201 195 176 156 154 163 169 181 183 175 177 172 176 181 175 166 165 153 139
291 288 286 287 292 304 297 291 283 268 264 270 281 10 68 72 53 43 37 30 27 23 20 21 16 13 26 51 77 85 71 82 136 125 130 151 164 177 185 185 185 181 180 187 186 171 163 160 164
267 267 280 298 320 291 284 277 256 266 255 12 61 70 66 63 55 43 36 31 27 25 22 23 19 19 19 26 41 50 41 25 20 33 88 150 163 180 192 198 193 188 188 201 202 190 177 173 192
274 277 304 315 316 287 309 291 237 260 240 98 74 70 65 60 56 48 40 34 30 23 20 27 25 23 18 20 30 40 41 23 353 348 143 162 179 198 208 212 213 201 197 208 213 207 205 173 183
257 352 299 274 266 272 247 257 263 230 165 101 90 81 72 64 59 52 44 38 32 24 23 26 30 29 22 21 24 27 24 12 2 8 17 25 210 214 225 230 230 225 211 213 218 213 215 211 193
336 314 265 243 227 263 241 236 286 354 138 130 110 95 84 74 63 57 50 42 35 28 29 28 31 31 25 25 24 23 18 9 5 1 350 327 270 229 224 237 241 242 234 221 221 219 216 223 224
210 274 325 309 214 232 10 291 267 36 113 133 127 110 93 81 69 57 46 41 36 29 29 32 31 29 23 24 24 20 14 10 11 3 350 338 314 265 227 219 228 240 246 241 227 223 222 221 229
192 220 221 255 264 302 339 260 266 85 90 100 105 103 96 87 80 69 57 50 44 36 31 32 32 27 21 21 18 18 16 12 7 2 358 350 339 322 300 240 224 228 240 247 241 233 229 225 229
285 234 249 250 280 279 255 250 238 121 113 108 106 101 96 91 84 76 66 56 47 43 39 35 33 27 21 17 11 15 14 10 6 3 2 356 348 341 338 326 279 243 236 240 245 243 236 231 231
223 309 59 178 238 246 252 258 266 160 144 130 120 114 109 104 97 86 74 66 56 49 46 43 38 27 18 13 8 8 8 4 1 0 0 354 346 342 338 335 327 301 264 243 240 245 242 239 236
194 194 208 215 221 238 254 257 29 78 141 139 129 123 119 111 99 87 75 67 60 47 43 43 38 27 10 4 355 354 357 356 354 354 351 345 340 338 336 330 325 317 303 275 252 245 244 244 243
250 240 226 236 241 240 255 263 56 77 94 118 131 139 141 134 99 85 76 64 57 41 27 31 26 25 360 344 337 336 343 345 343 341 337 333 331 329 327 325 323 316 309 296 275 260 250 247 246